Probability
0 0 0 0 0 0 0 0 0 0 0 0 0 1 2 2 1 0 0 0 0 0 0 0 0 0 0 0 0 0 0 0 0 0 0 0 0 0 0 0 0 1 1
0 0 0 1 1 1 0 0 0 0 0 0 0 0 1 2 1 0 0 0 0 0 0 0 0 0 0 0 0 0 0 0 0 0 0 0 0 0 0 0 0 0 1
0 0 1 2 2 2 1 0 0 0 0 0 0 0 0 1 1 0 0 0 0 0 0 0 0 0 0 0 0 0 0 0 0 0 0 0 0 0 0 0 0 0 1
0 0 1 2 3 3 1 0 0 0 0 0 0 0 0 0 0 0 0 0 0 0 0 0 0 0 0 0 0 0 0 0 0 0 0 0 0 0 0 0 0 0 1
0 0 1 3 3 3 3 1 0 0 0 0 0 0 0 0 0 0 0 0 0 0 1 1 0 0 0 0 0 0 0 0 1 0 0 0 0 0 0 0 0 0 0
0 1 2 3 3 3 3 2 1 1 1 0 0 0 0 0 0 0 0 0 0 1 2 1 0 0 0 0 0 0 0 0 0 0 0 0 0 1 1 0 0 0 0
1 1 3 3 3 3 3 2 2 2 2 1 0 1 1 1 1 1 0 0 0 1 1 1 0 0 0 0 0 0 0 0 0 0 0 0 1 2 2 1 0 0 0
2 2 2 3 3 3 3 2 2 3 3 1 0 1 2 1 2 2 1 0 0 0 0 0 0 0 0 0 0 0 0 0 0 0 0 0 1 2 2 1 0 0 0
3 3 1 1 2 3 2 2 3 3 3 2 1 2 2 2 2 2 1 0 0 0 0 0 0 0 0 0 0 0 0 0 0 0 0 0 1 1 1 1 0 0 0
3 2 1 0 1 1 2 3 3 3 2 1 1 2 2 2 2 2 2 1 1 1 0 0 0 0 0 0 0 0 0 0 0 0 0 1 2 1 0 0 0 0 0
2 2 1 0 0 0 2 3 3 2 1 1 1 1 1 1 1 2 2 2 2 1 0 1 1 1 0 0 0 0 0 0 0 0 1 2 3 2 2 1 1 0 0
1 1 0 0 0 0 1 1 1 1 0 0 0 0 0 0 0 1 1 2 1 0 0 1 1 1 0 0 0 1 1 1 0 0 1 2 3 3 3 3 2 1 1
0 0 0 1 1 0 0 0 0 0 0 0 0 0 0 0 0 0 0 0 0 0 0 0 0 0 0 0 1 2 2 1 0 0 1 3 3 3 4 3 3 3 2
0 0 0 1 2 1 0 0 0 0 0 0 0 0 0 0 0 0 0 0 0 0 0 0 0 0 0 0 1 2 2 1 0 1 2 3 3 3 3 3 3 3 3
0 0 0 1 2 1 0 0 0 0 0 0 0 0 0 0 0 0 0 0 0 0 0 0 0 0 0 0 0 1 2 1 1 1 3 3 3 3 3 3 3 3 3
0 0 0 1 1 1 0 0 0 0 0 0 0 0 0 0 0 0 0 0 0 0 0 0 0 0 0 0 0 1 2 3 2 3 3 3 3 3 3 3 3 3 3
1 0 0 0 0 0 0 0 0 0 0 0 0 0 0 0 0 0 0 0 0 0 1 1 1 0 0 0 0 1 2 2 3 3 3 3 3 3 3 3 3 3 3
1 0 0 0 0 0 0 0 0 0 0 0 0 0 0 0 0 0 0 0 0 1 2 2 2 1 0 0 0 0 1 1 1 2 2 2 2 2 2 3 3 3 2
1 1 1 1 1 0 0 0 0 0 0 0 0 0 0 0 0 0 0 0 0 1 2 3 2 1 0 0 0 0 0 0 0 0 0 1 1 1 1 1 2 2 1
1 1 2 2 1 1 1 0 0 0 0 0 0 0 0 0 0 0 0 0 0 0 2 3 3 1 0 0 0 0 0 0 0 0 0 0 0 0 0 0 1 1 0
0 1 3 3 3 2 2 1 1 0 0 0 0 0 0 0 0 0 0 0 0 0 2 3 3 2 1 0 0 0 0 0 0 0 0 0 0 0 0 0 0 0 0
0 1 3 3 3 3 3 3 3 2 1 1 1 0 0 0 0 0 0 0 0 0 1 2 2 1 1 0 0 0 0 0 0 0 0 0 0 0 0 0 0 0 0
0 1 3 4 4 4 4 5 6 5 3 2 1 0 0 0 0 0 0 0 0 0 1 1 1 0 0 0 0 0 0 0 0 0 0 0 0 0 0 0 0 0 0
0 1 3 5 5 5 6 7 8 7 4 2 1 0 0 0 0 0 0 0 0 0 0 0 0 0 0 0 0 0 0 0 0 0 0 0 0 0 0 0 0 0 0
1 1 4 5 5 5 6 8 8 7 5 3 1 0 0 0 0 0 0 0 0 0 0 0 0 0 0 0 0 0 0 0 0 0 0 0 0 0 0 0 0 0 0
1 2 4 6 5 5 6 7 8 8 7 5 2 1 0 0 0 0 0 0 0 0 0 0 0 0 0 0 0 0 0 0 0 0 0 0 0 0 0 0 0 0 0
Wind_Speed
7 9 9 9 9 9 9 9 9 9 9 9 10 10 10 10 11 11 11 11 11 11 12 12 12 12 12 12 12 12 12 12 11 11 10 10 10 9 9 8 8 7 11
9 10 10 9 9 9 9 9 9 9 9 9 10 10 10 11 11 11 11 11 11 11 11 11 12 12 12 11 11 10 11 10 10 10 9 9 9 9 10 10 9 7 10
9 10 9 9 9 9 9 9 9 9 9 9 9 10 10 10 11 11 11 11 11 11 11 11 11 11 11 10 9 9 9 9 9 8 7 5 7 10 10 10 9 9 9
10 9 9 9 9 9 9 9 9 9 9 9 9 9 10 10 11 11 11 11 11 11 11 11 10 10 10 9 9 9 8 8 8 7 5 5 6 11 11 10 9 8 9
10 10 9 9 9 9 9 9 9 9 9 9 9 9 10 10 11 11 10 10 10 11 11 10 10 9 9 9 9 8 8 8 8 7 6 7 6 11 11 10 10 9 9
10 10 9 9 9 9 8 8 9 9 9 9 9 10 10 10 10 10 10 10 10 10 10 10 9 9 9 9 9 8 8 8 7 6 6 6 6 10 11 10 10 9 9
9 10 10 10 9 9 8 8 8 9 9 9 9 9 9 10 10 10 10 10 10 10 10 9 9 9 8 8 8 7 7 7 5 5 6 6 7 11 11 10 10 9 9
8 10 9 10 10 9 9 9 9 9 9 9 9 9 10 10 10 10 10 10 10 10 9 9 9 9 8 8 7 7 8 7 6 7 6 7 10 12 11 10 10 9 9
6 8 8 8 9 9 10 11 11 11 10 9 9 9 9 10 10 10 11 10 10 9 9 8 8 8 7 7 7 7 7 7 5 4 8 6 10 11 11 11 10 10 9
5 5 7 7 8 8 7 10 10 10 9 8 7 7 8 8 9 10 10 10 9 8 7 7 7 7 6 6 6 5 5 5 5 6 5 7 11 11 11 11 10 10 10
5 5 5 6 6 7 7 8 8 8 7 6 5 5 4 4 5 6 8 9 8 7 6 5 5 4 4 4 4 4 3 3 4 5 5 9 11 11 11 11 11 10 10
4 4 5 6 6 6 6 5 3 4 4 3 3 4 2 3 4 6 7 7 6 5 4 3 3 2 2 1 2 2 2 4 4 5 5 10 11 11 11 11 11 11 10
4 4 5 5 6 5 4 3 2 2 2 2 3 4 3 3 3 4 3 3 2 2 1 1 1 1 2 2 2 2 3 4 4 4 5 10 11 11 11 11 11 11 11
5 4 4 5 5 5 5 3 2 2 2 2 2 4 3 2 2 3 2 2 2 1 1 1 1 2 3 3 4 4 5 4 4 4 5 11 11 11 11 11 11 10 11
5 4 4 4 5 5 5 2 3 3 2 3 2 2 4 2 2 2 3 2 2 2 2 2 2 3 4 4 4 5 5 5 5 5 4 10 11 11 11 11 10 10 10
6 5 4 4 5 6 4 2 3 3 2 3 2 2 4 2 2 3 3 3 2 2 2 2 3 3 3 3 4 3 4 4 4 5 4 6 10 10 10 10 10 10 10
7 6 5 4 4 5 4 4 4 3 3 2 2 2 3 3 3 3 2 2 2 2 3 3 3 3 3 3 3 3 3 3 3 4 4 3 4 7 9 10 9 9 9
7 7 6 4 4 5 4 3 3 3 3 2 2 2 3 3 4 3 2 2 2 2 2 2 2 3 3 3 3 2 3 2 3 3 3 3 3 4 6 8 9 8 8
7 8 7 5 5 5 4 3 3 3 3 2 2 2 2 3 3 3 2 1 2 2 2 2 3 3 3 3 2 2 2 2 2 3 3 3 4 4 4 5 8 8 8
5 7 7 5 5 5 3 3 2 2 2 2 2 2 2 2 3 3 1 2 3 2 2 2 3 2 1 1 2 3 2 2 2 3 3 3 3 4 4 4 3 4 6
4 5 7 6 4 4 3 2 2 2 1 2 2 2 1 1 2 2 1 2 2 2 2 2 2 2 1 1 2 2 2 2 2 2 2 2 2 3 3 3 3 3 3
4 4 6 5 5 5 3 2 2 2 1 2 2 2 1 1 1 2 2 2 3 2 1 1 2 1 1 1 1 1 1 2 2 1 2 2 2 2 2 3 3 3 3
3 3 3 4 5 5 4 2 2 2 1 1 2 1 1 1 1 1 1 2 2 2 2 1 2 2 1 1 1 1 1 1 0 1 1 2 2 1 1 1 2 3 4
3 3 3 4 4 5 5 3 3 3 2 2 2 2 2 2 2 1 1 1 2 2 2 2 2 2 2 1 1 0 1 2 2 0 1 1 1 1 1 1 2 3 3
3 2 2 3 3 3 3 4 3 2 1 1 2 3 2 2 2 2 2 2 1 2 3 2 2 2 1 1 1 0 1 0 0 2 1 1 1 0 1 1 1 2 3
4 2 2 2 2 3 3 3 3 3 2 2 2 2 2 2 2 3 2 2 2 2 2 3 2 2 1 1 1 1 1 1 1 1 1 1 1 1 0 1 1 2 2
Wind_Direction
88 88 72 67 62 60 59 59 58 57 58 61 62 65 65 69 71 72 72 72 74 75 74 71 69 67 66 65 66 66 67 68 73 83 88 90 86 84 84 84 89 90 94
99 95 79 71 66 63 61 61 61 62 63 64 66 66 67 72 73 73 74 75 77 77 75 72 70 67 67 65 67 69 71 73 74 78 82 81 81 81 82 80 83 90 92
98 99 85 71 69 66 64 64 65 67 66 68 69 69 70 74 74 73 74 76 77 77 75 73 72 67 67 67 68 70 72 74 74 72 71 73 77 75 76 78 84 94 93
94 91 82 74 70 68 66 66 68 70 68 69 73 74 75 78 78 77 75 76 77 78 78 77 76 72 70 69 68 70 71 68 63 61 59 67 73 77 73 71 77 87 91
90 92 88 80 72 68 68 71 74 75 73 72 75 78 80 81 80 79 78 78 80 81 81 80 77 75 72 69 66 66 66 62 60 58 63 67 69 75 74 70 71 81 87
99 99 97 89 79 72 72 78 83 83 79 77 78 81 83 83 82 80 78 78 79 81 82 81 80 76 72 69 65 61 63 62 59 63 66 72 74 73 72 69 70 78 83
106 108 109 101 90 81 79 83 90 91 86 83 84 85 86 85 85 83 79 77 78 78 79 80 81 80 74 68 63 60 64 64 70 71 71 74 75 74 70 69 70 74 77
109 112 114 112 102 91 83 88 96 99 95 92 91 91 91 88 85 83 81 79 79 78 78 79 81 80 73 65 59 58 57 53 71 77 74 73 76 74 71 68 69 72 76
101 114 122 125 116 101 91 93 100 103 104 102 101 99 98 96 92 88 85 82 82 82 83 85 85 82 75 66 61 62 57 51 54 66 78 75 76 75 73 72 72 73 74
110 109 121 125 126 122 111 106 110 113 115 117 116 113 112 110 103 94 90 85 85 87 89 93 96 92 85 76 68 64 52 48 63 68 73 79 77 76 76 74 73 75 75
110 112 112 117 120 120 119 121 128 130 131 132 137 136 127 121 114 102 99 99 94 93 98 105 113 113 108 98 82 67 57 71 74 73 70 78 79 77 77 76 75 74 74
111 113 121 119 112 109 112 125 134 128 143 150 133 131 119 101 101 107 117 114 113 111 120 139 160 169 175 132 113 97 76 80 79 76 72 79 81 81 80 78 76 73 72
125 115 112 114 111 109 105 110 99 103 123 113 105 106 93 96 115 113 123 125 121 115 93 142 186 165 114 98 92 88 76 71 72 74 71 79 81 83 84 81 77 74 72
108 110 109 111 110 110 104 103 109 102 96 91 97 106 98 94 98 103 102 101 94 71 45 38 53 73 75 74 81 80 82 84 81 85 76 79 80 83 85 84 80 77 74
122 113 98 104 106 104 99 111 100 89 88 91 55 90 102 97 94 100 97 86 80 69 63 45 54 66 66 58 63 73 76 83 89 90 86 84 84 85 84 85 83 80 76
129 119 111 103 103 106 112 110 97 97 85 82 70 79 90 89 85 82 90 83 72 66 65 71 77 87 84 78 66 61 74 81 85 98 107 89 83 84 84 84 83 79 76
134 126 112 101 99 101 103 97 98 100 92 84 71 71 87 81 80 83 85 86 80 66 65 61 61 75 92 93 88 76 71 75 80 91 107 114 98 87 88 86 84 80 77
135 127 124 120 106 97 94 92 96 95 88 81 74 58 74 77 81 75 75 81 83 71 67 72 67 67 69 73 68 64 70 71 76 93 106 113 114 105 94 91 86 81 76
130 131 134 126 119 106 103 103 88 95 95 91 78 56 59 76 88 90 78 69 83 78 68 70 67 68 68 70 78 76 66 57 45 74 85 99 110 117 116 109 96 85 80
129 133 132 128 132 121 111 106 93 94 98 94 89 78 49 71 88 95 106 89 79 82 70 74 81 71 71 81 74 70 75 78 58 56 57 69 87 110 119 123 120 97 85
135 135 131 142 140 128 128 128 123 121 125 113 114 103 73 74 102 108 89 92 83 87 92 88 93 84 60 73 76 52 30 60 85 84 72 66 73 93 108 114 126 124 104
143 142 140 145 141 131 131 141 142 126 137 126 126 124 133 113 99 119 138 125 119 110 100 99 101 91 39 55 97 88 50 13 10 79 105 101 83 72 81 99 104 104 112
148 148 138 144 143 142 148 134 109 104 96 119 146 145 173 166 140 135 119 129 146 147 143 142 124 126 144 314 53 105 120 144 306 357 65 92 87 71 67 80 99 100 100
157 146 149 154 152 146 144 141 153 159 170 179 163 163 182 174 154 147 150 178 171 156 158 175 153 153 152 222 315 21 144 137 136 12 330 46 109 122 124 80 84 88 94
145 134 145 142 139 138 141 150 166 172 179 161 147 153 169 167 171 175 177 196 192 172 175 173 153 160 173 187 194 265 20 20 184 145 211 281 328 307 126 121 108 106 102
121 127 141 137 139 140 149 159 180 182 173 163 165 168 181 180 189 193 190 187 187 186 188 173 167 175 191 204 212 188 164 196 223 152 172 217 231 260 124 113 111 122 125